Location: Saluda
(35.2377°N, 82.3468°W)
Time: 17:06:11
(UTC+00:00)

Explorer 11/Cluster Stage 4 - Pass Details

Date: 12 October 2022
Orbit: 466 x 1247 km, 28.8° (Epoch: 08 December)

Event Time Altitude Azimuth Distance (km) Brightness Sun altitude
Rises 15:18:26 0° 262° (W) 3,891 9.9 39.0°
Reaches altitude 10° 15:21:09 10° 258° (WSW) 3,020 9.5 39.4°
Maximum altitude 15:28:36 54° 184° (S) 1,462 9.2 40.3°
Drops below altitude 10° 15:36:32 10° 110° (ESE) 3,207 10.5 41.2°
Sets 15:39:29 0° 106° (ESE) 4,146 10.8 41.6°
